[[{"header":{"parameterUnit":"m.s-1","parameterCategory":2,"la1":30.2991,"la2":30.254,"lo1":-89.0895,"lo2":-89.0444,"dy":0.0017,"dx":0.0017,"nx":28,"ny":28,"refTime":"2025-09-13T21:00:00:Z","depth":"0","parameterNumber":2,"parameterNumberName":"U-component_of_CURRENTS"},"data":[0,0,0,0,0,0,0,0,0,0,0,0,0,0,0,0,0,0,0,0,0,0,0,0,0,0,0,0,0,0,0,0,0,0,0,0,0,0,0,0,0,0,0,0,0,0,0,0,0,0,0,0,0,0,0,0,0,0,-0.2729,-0.273,0,-0.2778,-0.2778,-0.2778,-0.2687,-0.2684,-0.2682,-0.2679,-0.253,-0.2529,-0.2528,0,0,0,0,0,0,0,0,0,0,0,0,0,-0.2534,-0.2538,-0.2729,-0.273,-0.2731,-0.2778,-0.2778,-0.2778,-0.2687,-0.2684,-0.2681,-0.2678,-0.2531,-0.2529,-0.2527,0,0,0,0,0,0,0,0,0,0,0,0,0,-0.2601,-0.2539,-0.2729,-0.2694,-0.2692,-0.2778,-0.2778,-0.2778,-0.2688,-0.2684,-0.268,-0.2676,-0.2531,-0.2529,-0.2527,-0.2594,0,0,-0.252,-0.252,0,0,0,0,0,0,0,0,-0.2597,-0.2607,-0.2699,-0.2697,-0.2694,-0.2725,-0.2655,-0.2708,-0.2689,-0.2686,-0.2679,-0.2674,-0.2583,-0.2576,-0.2592,-0.2587,-0.2581,-0.252,-0.2519,-0.2518,-0.2517,0,0,0,0,0,0,0,-0.2593,-0.2605,-0.2745,-0.27,-0.2698,-0.2668,-0.2673,-0.2665,-0.265,-0.2686,-0.268,-0.2693,-0.2579,-0.2594,-0.2587,-0.2578,-0.252,-0.2518,-0.2517,-0.2516,-0.2641,-0.2645,0,0,0,0,0,0,-0.2601,-0.2602,-0.2743,-0.2746,-0.2639,-0.2675,-0.268,-0.2716,-0.2654,-0.2643,-0.2696,-0.2688,-0.26,-0.259,-0.2581,-0.266,-0.2518,-0.2516,-0.2515,-0.2636,-0.2642,-0.2647,0,0,0,0,0,0,-0.2597,-0.2615,-0.2741,-0.2675,-0.269,-0.2684,-0.2724,-0.272,-0.2714,-0.2665,-0.2648,-0.2692,-0.2596,-0.2584,-0.2591,-0.2653,-0.2515,-0.2513,-0.2631,-0.2638,-0.2644,-0.2815,0,0,0,0,0,0,-0.2592,-0.2613,-0.2637,-0.2678,-0.2694,-0.2811,-0.2728,-0.2724,-0.2731,-0.272,-0.2657,-0.264,-0.2592,-0.2595,-0.2589,-0.2647,-0.2511,-0.2625,-0.2634,-0.2642,-0.2804,-0.2827,-0.2847,0,0,0,0,0,-0.2585,-0.265,-0.2639,-0.2656,-0.2731,-0.2815,-0.2822,-0.2798,-0.2735,-0.2768,-0.2721,-0.2641,-0.2645,-0.2597,-0.2589,-0.2648,-0.2621,-0.2631,-0.2642,-0.2794,-0.2822,-0.2846,0,0,0,0,0,0,-0.2573,-0.2649,-0.2637,-0.2718,-0.2766,-0.2801,-0.283,-0.2806,-0.2799,-0.277,-0.2693,-0.2678,-0.2709,-0.267,-0.2618,-0.2717,-0.2624,-0.2633,-0.2743,-0.2769,-0.279,-0.2773,-0.2509,0,0,0,0,0,-0.2588,-0.2651,-0.2712,-0.2772,-0.2803,-0.2811,-0.2834,-0.2827,-0.2831,-0.2822,-0.2781,-0.2751,-0.2758,-0.275,-0.2746,-0.2796,-0.2682,-0.2836,-0.2857,-0.2876,-0.2862,-0.2728,-0.2733,-0.2681,-0.2681,-0.2681,0,0,-0.2595,-0.2646,-0.2678,-0.2773,-0.28,-0.288,-0.2814,-0.2871,-0.2918,-0.2809,-0.2845,-0.2819,-0.2789,-0.285,-0.2861,-0.2813,-0.2846,-0.2889,-0.2904,-0.288,-0.2739,-0.2742,-0.2746,-0.2688,-0.2687,-0.2686,0,0,-0.2668,-0.2696,-0.2781,-0.2837,-0.2906,-0.2925,-0.2942,-0.2987,-0.2985,-0.3039,-0.2974,-0.2987,-0.2992,-0.2994,-0.2992,-0.3136,-0.2962,-0.314,-0.323,-0.3103,-0.3103,-0.3102,-0.3005,-0.2993,-0.3152,-0.3152,-0.3153,0,-0.2662,-0.2789,-0.2816,-0.2916,-0.2964,-0.2949,-0.3043,-0.3068,-0.3101,-0.3093,-0.3069,-0.3064,-0.3068,-0.31,-0.3186,-0.318,-0.3066,-0.3127,-0.3122,-0.3118,-0.3114,-0.3014,-0.2999,-0.3162,-0.3161,-0.316,-0.3159,0,-0.2809,-0.2902,-0.296,-0.3075,-0.3131,-0.3214,-0.3256,-0.3284,-0.3265,-0.3259,-0.3272,-0.3273,-0.3242,-0.3295,-0.3299,-0.3302,-0.3219,-0.3155,-0.3036,-0.3128,-0.302,-0.3001,-0.3176,-0.3172,-0.3169,-0.3167,0,0,-0.279,-0.3021,-0.3031,-0.3088,-0.3219,-0.3255,-0.3358,-0.3413,-0.3369,-0.3428,-0.3372,-0.3497,-0.3418,-0.3415,-0.3398,-0.3355,-0.3303,-0.3267,-0.3255,-0.3137,-0.3006,-0.2953,-0.2925,-0.3196,-0.3193,-0.3191,-0.2955,0,-0.2882,-0.3099,-0.3186,-0.3319,-0.3419,-0.3443,-0.3494,-0.3519,-0.3502,-0.3437,-0.3443,-0.3388,-0.348,-0.3425,-0.3417,-0.3291,-0.3253,-0.3373,-0.2963,-0.2952,-0.2863,-0.2902,-0.2782,-0.256,-0.2935,-0.2932,-0.2929,0,-0.2975,-0.311,-0.331,-0.3402,-0.343,-0.3488,-0.348,-0.3521,-0.3467,-0.3433,-0.3403,-0.3328,-0.3328,-0.3335,-0.3207,-0.3254,-0.3169,-0.3091,-0.3077,-0.294,-0.2861,-0.2524,-0.2509,-0.2513,-0.2898,-0.2901,-0.2903,0,-0.2933,-0.3145,-0.3296,-0.3354,-0.3489,-0.3516,-0.3531,-0.3511,-0.3437,-0.3382,-0.3269,-0.3247,-0.3153,-0.3071,-0.3024,-0.3054,-0.2809,-0.2799,-0.268,-0.2674,-0.2451,-0.2431,-0.2352,-0.2676,-0.2677,-0.2678,-0.2678,0,-0.2993,-0.3063,-0.3273,-0.335,-0.3361,-0.3468,-0.339,-0.3405,-0.3306,-0.3171,-0.322,-0.3089,-0.3067,-0.2945,-0.2923,-0.2752,-0.2721,-0.2684,-0.2599,-0.252,-0.2509,-0.2402,-0.2448,-0.2669,-0.2671,-0.2672,-0.2674,0,-0.2905,-0.3087,-0.3202,-0.3362,-0.3363,-0.335,-0.3261,-0.314,-0.3144,-0.296,-0.2922,-0.2884,-0.2769,-0.2742,-0.2581,-0.2577,-0.239,-0.2394,-0.2341,-0.2257,-0.2157,-0.2218,-0.2017,-0.1959,-0.2179,-0.2176,-0.2173,0,-0.2889,-0.2981,-0.314,-0.3122,-0.3182,-0.3148,-0.3042,-0.3039,-0.2922,-0.2832,-0.2711,-0.2601,-0.2498,-0.2301,-0.226,-0.2146,-0.2222,-0.1998,-0.2074,-0.2131,-0.2133,-0.22,-0.2173,-0.1854,-0.1849,-0.1845,-0.1842,0,-0.2787,-0.2855,-0.2937,-0.2933,-0.2872,-0.2768,-0.2683,-0.2586,-0.2562,-0.2463,-0.2351,-0.2274,-0.2144,-0.2005,-0.1927,-0.1868,-0.1958,-0.1912,-0.1935,-0.1856,-0.1946,-0.1854,-0.2076,-0.1806,-0.181,-0.1812,-0.1814,-0.1816,-0.2609,-0.2624,-0.2709,-0.2669,-0.2562,-0.2408,-0.2281,-0.2213,-0.2063,-0.1898,-0.2002,-0.1803,-0.184,-0.1704,-0.1651,-0.1563,-0.1661,-0.1542,-0.1602,-0.166,-0.1641,-0.1831,-0.1502,-0.1504,-0.1506,-0.1507,-0.1508,0,-0.2357,-0.2408,-0.2386,-0.2329,-0.211,-0.2151,-0.1992,-0.1849,-0.1689,-0.1526,-0.1434,-0.1347,-0.1314,-0.1335,-0.1353,-0.1296,-0.1289,-0.1291,-0.1352,-0.133,-0.1419,-0.1447,-0.1132,-0.1132,-0.1132,-0.1132,-0.1132,-0.1132,-0.2211,-0.2165,-0.2214,-0.19,-0.1806,-0.1507,-0.1414,-0.1291,-0.1146,-0.0864,-0.0681,-0.0617,-0.0887,-0.126,-0.1283,-0.1216,-0.1231,-0.1173,-0.1243,-0.1336,-0.1365,-0.1394,-0.143,-0.1118,-0.1118,-0.1078,-0.1078,-0.1078]},{"header":{"parameterUnit":"m.s-1","parameterCategory":2,"la1":30.2991,"la2":30.254,"lo1":-89.0895,"lo2":-89.0444,"dy":0.0017,"dx":0.0017,"nx":28,"ny":28,"refTime":"2025-09-13T21:00:00:Z","depth":"0","parameterNumber":3,"parameterNumberName":"V-component_of_CURRENTS"},"data":[0,0,0,0,0,0,0,0,0,0,0,0,0,0,0,0,0,0,0,0,0,0,0,0,0,0,0,0,0,0,0,0,0,0,0,0,0,0,0,0,0,0,0,0,0,0,0,0,0,0,0,0,0,0,0,0,0,0,-0.0217,-0.0215,0,-0.0063,-0.0061,-0.0059,0.0037,0.0038,0.0038,0.0039,0.0197,0.0201,0.0204,0,0,0,0,0,0,0,0,0,0,0,0,0,-0.035,-0.0348,-0.0217,-0.0215,-0.0213,-0.0063,-0.0061,-0.0059,0.0037,0.0038,0.0038,0.0039,0.0196,0.02,0.0205,0,0,0,0,0,0,0,0,0,0,0,0,0,-0.0254,-0.0348,-0.0217,-0.0147,-0.0139,-0.0063,-0.0061,-0.0058,0.0037,0.0038,0.0039,0.0039,0.0194,0.02,0.0205,0.0223,0,0,0.0222,0.0225,0,0,0,0,0,0,0,0,-0.0259,-0.0249,-0.0159,-0.0152,-0.0143,-0.0031,-0.0049,0.0036,0.0037,-0.003,0.0039,0.004,0.0121,0.0132,0.0159,0.0231,0.0237,0.0223,0.0226,0.0228,0.023,0,0,0,0,0,0,0,-0.0266,-0.0255,-0.0156,-0.0157,-0.0147,-0.0096,-0.0082,-0.0032,0.0039,-0.0024,-0.0017,0.0,0.0125,0.0154,0.0164,0.024,0.0223,0.0227,0.0231,0.0233,0.0337,0.0336,0,0,0,0,0,0,-0.029,-0.0261,-0.0161,-0.0151,-0.02,-0.0095,-0.0079,-0.0068,0.0038,0.0055,-0.0001,0.0004,0.0144,0.0157,0.017,0.0194,0.0228,0.0234,0.0237,0.0337,0.0336,0.0336,0,0,0,0,0,0,-0.0294,-0.0283,-0.0167,-0.0202,-0.0184,-0.0094,-0.0081,-0.0065,-0.0038,0.0056,0.0074,0.0009,0.0145,0.0162,0.0203,0.02,0.0236,0.0241,0.0338,0.0337,0.0336,0.0244,0,0,0,0,0,0,-0.0298,-0.0285,-0.0294,-0.0204,-0.0183,-0.0147,-0.0082,-0.0063,-0.0029,-0.0021,0.0071,0.0087,0.0147,0.0194,0.0209,0.0209,0.0246,0.0339,0.0337,0.0336,0.0248,0.024,0.0233,0,0,0,0,0,-0.0304,-0.0327,-0.0296,-0.0284,-0.0196,-0.0149,-0.0134,-0.0066,-0.003,-0.0035,0.0034,0.0084,0.0198,0.0198,0.0215,0.0217,0.0339,0.0338,0.0337,0.0251,0.0241,0.0233,0,0,0,0,0,0,-0.0398,-0.0316,-0.0281,-0.028,-0.0228,-0.0133,-0.0131,-0.0078,-0.0025,-0.0018,0.0076,0.0095,0.0126,0.0181,0.0179,0.0242,0.0277,0.0279,0.0206,0.0198,0.0191,0.0202,0.025,0,0,0,0,0,-0.0421,-0.0414,-0.0329,-0.0333,-0.0309,-0.0221,-0.0194,-0.0147,-0.0083,-0.0058,0.001,0.008,0.0134,0.0172,0.0217,0.0257,0.0306,0.0269,0.0262,0.0255,0.0275,0.0355,0.0358,0.0332,0.0332,0.0332,0,0,-0.0461,-0.0414,-0.0412,-0.0352,-0.0303,-0.0285,-0.0204,-0.0176,-0.0153,-0.0051,-0.0014,0.0046,0.0133,0.0172,0.0193,0.0221,0.0274,0.0253,0.0247,0.0272,0.0354,0.0357,0.036,0.0331,0.0331,0.0331,0,0,-0.0542,-0.0494,-0.0515,-0.0473,-0.041,-0.0348,-0.0346,-0.0259,-0.0215,-0.0176,-0.0093,-0.0025,0.0043,0.0128,0.0176,0.016,0.0221,0.0161,0.0155,0.023,0.0234,0.0238,0.0242,0.0247,0.0174,0.0173,0.0173,0,-0.0596,-0.0592,-0.0519,-0.0522,-0.0481,-0.0384,-0.0383,-0.0333,-0.0245,-0.0184,-0.0188,-0.0026,0.0032,0.014,0.0128,0.0148,0.0174,0.0178,0.0222,0.0227,0.0233,0.0238,0.0245,0.0169,0.0169,0.017,0.017,0,-0.0682,-0.0671,-0.068,-0.0638,-0.0595,-0.058,-0.0486,-0.0441,-0.0375,-0.0294,-0.0195,-0.0108,0.0009,0.0023,0.0068,0.0151,0.0144,0.0188,0.0243,0.023,0.0235,0.0243,0.0162,0.0164,0.0165,0.0166,0,0,-0.0798,-0.0751,-0.0747,-0.0717,-0.0641,-0.06,-0.0562,-0.0456,-0.039,-0.0318,-0.023,-0.0128,-0.0045,0.0015,0.0092,0.0159,0.0186,0.0182,0.0188,0.0183,0.0298,0.035,0.0364,0.0236,0.0238,0.024,0.0262,0,-0.0876,-0.0902,-0.0841,-0.0823,-0.081,-0.0685,-0.0636,-0.0526,-0.0435,-0.0341,-0.0206,-0.012,-0.0058,-0.0009,0.0073,0.0151,0.0215,0.0173,0.0316,0.0319,0.0368,0.0381,0.0448,0.0481,0.0271,0.0273,0.0274,0,-0.0967,-0.0951,-0.0978,-0.0856,-0.0832,-0.0807,-0.065,-0.0592,-0.0431,-0.036,-0.023,-0.0139,-0.0022,0.0013,0.0178,0.0141,0.022,0.0279,0.0282,0.0385,0.0392,0.0475,0.0506,0.0677,0.0289,0.0287,0.0286,0,-0.1069,-0.1019,-0.1032,-0.1006,-0.0891,-0.0842,-0.0752,-0.0596,-0.0521,-0.0377,-0.0331,-0.0156,-0.0097,0.0038,0.0173,0.0166,0.0329,0.034,0.0469,0.0469,0.0588,0.0597,0.0816,0.0482,0.0482,0.0482,0.0482,0,-0.117,-0.1155,-0.1077,-0.1085,-0.1013,-0.0906,-0.0816,-0.07,-0.0574,-0.0481,-0.0347,-0.0264,-0.0087,0.0036,0.0156,0.0337,0.033,0.0478,0.0505,0.0549,0.0554,0.076,0.0809,0.0482,0.0482,0.0482,0.0482,0,-0.1296,-0.1267,-0.1244,-0.1134,-0.1082,-0.1029,-0.0865,-0.0792,-0.0681,-0.058,-0.0548,-0.0363,-0.0196,-0.0017,0.0188,0.0313,0.0589,0.0556,0.056,0.059,0.0855,0.0893,0.1116,0.1225,0.0671,0.0673,0.0675,0,-0.1367,-0.1396,-0.1296,-0.1246,-0.1199,-0.1098,-0.1014,-0.0866,-0.0799,-0.062,-0.0585,-0.0408,-0.0224,0.0073,0.0315,0.0543,0.0686,0.0737,0.0774,0.0903,0.0965,0.0984,0.1061,0.0851,0.0854,0.0856,0.0858,0,-0.1467,-0.145,-0.1421,-0.1331,-0.1253,-0.1157,-0.1042,-0.1015,-0.0843,-0.0726,-0.0551,-0.0399,-0.0106,0.0218,0.0514,0.0659,0.0873,0.0792,0.0963,0.1168,0.1172,0.1277,0.074,0.0879,0.0877,0.0876,0.0874,0.0874,-0.1502,-0.1506,-0.1458,-0.1359,-0.1274,-0.119,-0.111,-0.0975,-0.0833,-0.055,-0.0456,-0.0062,0.0217,0.0657,0.0796,0.1126,0.1061,0.1253,0.1289,0.1296,0.1434,0.0912,0.1071,0.107,0.107,0.1069,0.1068,0,-0.1495,-0.1496,-0.1444,-0.1335,-0.1251,-0.1194,-0.1082,-0.0952,-0.074,-0.0383,-0.0084,0.0496,0.0838,0.1098,0.1437,0.1628,0.1665,0.1722,0.1789,0.1846,0.1431,0.1477,0.1692,0.1692,0.1691,0.1691,0.1691,0.1691,-0.1476,-0.1463,-0.1443,-0.1308,-0.1231,-0.1093,-0.1025,-0.0787,-0.0498,0.0121,0.0632,0.0988,0.129,0.1733,0.2057,0.2085,0.2272,0.2233,0.2321,0.2055,0.2014,0.1976,0.2037,0.2365,0.2365,0.2756,0.276,0.2762]}],[{"header":{"parameterUnit":"m.s-1","parameterCategory":2,"la1":30.2991,"la2":30.254,"lo1":-89.0895,"lo2":-89.0444,"dy":0.0017,"dx":0.0017,"nx":28,"ny":28,"refTime":"2025-09-13T21:00:00:Z","depth":"2","parameterNumber":2,"parameterNumberName":"U-component_of_CURRENTS"},"data":[0,0,0,0,0,0,0,0,0,0,0,0,0,0,0,0,0,0,0,0,0,0,0,0,0,0,0,0,0,0,0,0,0,0,0,0,0,0,0,0,0,0,0,0,0,0,0,0,0,0,0,0,0,0,0,0,0,0,-0.2541,-0.2542,0,-0.2571,-0.257,-0.257,-0.2497,-0.2495,-0.2494,-0.2493,-0.2617,-0.2621,-0.2626,0,0,0,0,0,0,0,0,0,0,0,0,0,-0.2289,-0.2294,-0.2541,-0.2542,-0.2544,-0.2571,-0.257,-0.257,-0.2497,-0.2495,-0.2494,-0.2492,-0.2615,-0.2621,-0.2626,0,0,0,0,0,0,0,0,0,0,0,0,0,-0.2358,-0.2296,-0.2541,-0.2518,-0.2516,-0.2571,-0.257,-0.257,-0.2498,-0.2495,-0.2493,-0.2491,-0.2614,-0.262,-0.2627,-0.2714,0,0,-0.2649,-0.2652,0,0,0,0,0,0,0,0,-0.2354,-0.2366,-0.252,-0.2519,-0.2518,-0.2536,-0.2527,-0.2626,-0.2498,-0.2495,-0.2493,-0.249,-0.2607,-0.2614,-0.2609,-0.2719,-0.2725,-0.2649,-0.2653,-0.2656,-0.2658,0,0,0,0,0,0,0,-0.235,-0.2364,-0.2543,-0.2522,-0.2521,-0.2461,-0.2468,-0.2544,-0.2557,-0.2495,-0.2492,-0.2511,-0.2605,-0.2603,-0.2612,-0.2727,-0.2649,-0.2655,-0.2659,-0.2662,-0.2916,-0.2919,0,0,0,0,0,0,-0.2376,-0.2361,-0.2543,-0.2545,-0.244,-0.2468,-0.2476,-0.2525,-0.2554,-0.2558,-0.2513,-0.2508,-0.2592,-0.2604,-0.2617,-0.2726,-0.2656,-0.2663,-0.2667,-0.2914,-0.2917,-0.2919,0,0,0,0,0,0,-0.2371,-0.2393,-0.2542,-0.2458,-0.2474,-0.2477,-0.2531,-0.2527,-0.2545,-0.2568,-0.2572,-0.2538,-0.2591,-0.2607,-0.2702,-0.273,-0.2666,-0.2672,-0.2911,-0.2915,-0.2918,-0.2942,0,0,0,0,0,0,-0.2364,-0.2392,-0.24,-0.2462,-0.248,-0.2586,-0.2534,-0.2529,-0.2563,-0.2557,-0.2592,-0.2599,-0.259,-0.2692,-0.2709,-0.2739,-0.2678,-0.2907,-0.2912,-0.2917,-0.2938,-0.2947,-0.2954,0,0,0,0,0,-0.2355,-0.2399,-0.2401,-0.2421,-0.2506,-0.2589,-0.2592,-0.2577,-0.2567,-0.2583,-0.2612,-0.2599,-0.2733,-0.2701,-0.272,-0.2752,-0.2905,-0.2911,-0.2916,-0.2935,-0.2945,-0.2954,0,0,0,0,0,0,-0.2319,-0.2399,-0.2401,-0.2474,-0.2529,-0.258,-0.2594,-0.2607,-0.264,-0.2631,-0.2652,-0.2663,-0.2754,-0.2768,-0.2732,-0.284,-0.2811,-0.2821,-0.2818,-0.2828,-0.2836,-0.2759,-0.2684,0,0,0,0,0,-0.2316,-0.2358,-0.2437,-0.2498,-0.2529,-0.257,-0.2593,-0.2598,-0.2651,-0.266,-0.2708,-0.2748,-0.2793,-0.2822,-0.2872,-0.2952,-0.289,-0.2981,-0.2989,-0.2995,-0.2948,-0.2856,-0.2848,-0.2938,-0.2938,-0.2938,0,0,-0.2318,-0.2373,-0.2394,-0.2489,-0.2528,-0.2573,-0.2577,-0.2636,-0.2659,-0.2679,-0.2747,-0.2798,-0.2828,-0.2894,-0.2935,-0.2907,-0.2956,-0.3002,-0.3007,-0.2955,-0.2861,-0.2851,-0.2842,-0.2942,-0.2942,-0.2941,0,0,-0.2351,-0.2406,-0.2435,-0.2489,-0.2559,-0.2587,-0.262,-0.2701,-0.2712,-0.2797,-0.2807,-0.2866,-0.297,-0.2967,-0.298,-0.3072,-0.301,-0.3114,-0.3077,-0.2991,-0.2979,-0.2969,-0.2938,-0.2924,-0.3102,-0.3102,-0.3102,0,-0.2336,-0.2399,-0.2459,-0.2511,-0.254,-0.2606,-0.2639,-0.268,-0.278,-0.278,-0.2819,-0.2909,-0.2978,-0.2984,-0.3026,-0.3081,-0.3033,-0.3035,-0.2991,-0.2979,-0.2967,-0.2937,-0.2921,-0.3104,-0.3103,-0.3103,-0.3103,0,-0.2369,-0.2427,-0.2471,-0.2536,-0.258,-0.2636,-0.2702,-0.2753,-0.2794,-0.2805,-0.2854,-0.2929,-0.2953,-0.3016,-0.306,-0.3032,-0.303,-0.3018,-0.2947,-0.2958,-0.2929,-0.2912,-0.3106,-0.3106,-0.3105,-0.3105,0,0,-0.2323,-0.2451,-0.2466,-0.249,-0.2588,-0.2632,-0.2687,-0.2718,-0.2716,-0.2796,-0.2781,-0.2889,-0.29,-0.2917,-0.2978,-0.2934,-0.289,-0.2952,-0.2946,-0.2884,-0.2721,-0.2658,-0.2634,-0.2851,-0.2847,-0.2844,-0.2752,0,-0.2318,-0.2391,-0.2456,-0.2522,-0.256,-0.2628,-0.2661,-0.2693,-0.273,-0.275,-0.2767,-0.28,-0.2867,-0.2898,-0.2859,-0.2903,-0.2836,-0.2917,-0.2748,-0.2744,-0.2654,-0.2607,-0.2439,-0.2334,-0.2735,-0.2732,-0.273,0,-0.2308,-0.2355,-0.2405,-0.2487,-0.2506,-0.2545,-0.257,-0.261,-0.2629,-0.265,-0.264,-0.268,-0.269,-0.2735,-0.2678,-0.2724,-0.2708,-0.271,-0.2705,-0.2602,-0.2645,-0.238,-0.2287,-0.27,-0.2703,-0.2705,-0.2707,0,-0.2212,-0.2323,-0.2347,-0.2382,-0.2477,-0.2492,-0.2528,-0.2557,-0.2574,-0.2582,-0.259,-0.2562,-0.259,-0.2527,-0.2588,-0.2618,-0.2497,-0.2531,-0.2429,-0.2429,-0.2224,-0.2209,-0.2395,-0.2395,-0.2396,-0.2396,-0.2396,0,-0.2174,-0.2204,-0.2308,-0.2325,-0.2324,-0.2417,-0.2413,-0.2443,-0.2481,-0.2466,-0.2525,-0.251,-0.2531,-0.2505,-0.2513,-0.2421,-0.2416,-0.238,-0.2366,-0.2242,-0.2231,-0.2492,-0.2505,-0.2393,-0.2393,-0.2394,-0.2394,0,-0.2079,-0.2161,-0.2187,-0.2267,-0.2289,-0.2282,-0.2362,-0.2362,-0.2412,-0.2405,-0.2414,-0.2461,-0.2413,-0.2419,-0.2355,-0.2331,-0.2258,-0.2212,-0.2104,-0.2075,-0.2273,-0.2289,-0.207,-0.2066,-0.2063,-0.206,-0.2058,0,-0.2038,-0.204,-0.2108,-0.2119,-0.2161,-0.2188,-0.2205,-0.2293,-0.2309,-0.236,-0.2344,-0.2335,-0.2277,-0.218,-0.2118,-0.203,-0.2135,-0.1847,-0.1852,-0.2213,-0.2223,-0.2244,-0.2264,-0.1631,-0.1626,-0.1621,-0.1617,0,-0.1915,-0.1939,-0.1953,-0.1971,-0.2003,-0.2037,-0.2084,-0.2094,-0.2183,-0.2192,-0.2171,-0.2132,-0.2046,-0.1877,-0.1798,-0.174,-0.1854,-0.1751,-0.2077,-0.1752,-0.1793,-0.1807,-0.184,-0.1577,-0.1581,-0.1584,-0.1586,-0.1588,-0.1794,-0.1764,-0.1784,-0.1792,-0.1839,-0.1862,-0.1828,-0.1903,-0.1902,-0.1885,-0.1951,-0.1838,-0.1796,-0.1567,-0.1474,-0.1422,-0.1555,-0.1508,-0.1524,-0.1544,-0.1521,-0.1554,-0.1293,-0.1295,-0.1297,-0.1299,-0.1301,0,-0.1596,-0.1604,-0.1607,-0.1613,-0.1613,-0.1694,-0.1719,-0.1664,-0.1608,-0.1645,-0.1604,-0.141,-0.1284,-0.1258,-0.1098,-0.1069,-0.1077,-0.104,-0.1054,-0.1093,-0.1128,-0.1087,-0.0742,-0.0741,-0.074,-0.0738,0,0,-0.152,-0.1436,-0.1445,-0.1382,-0.1403,-0.1334,-0.1313,-0.1266,-0.125,-0.1176,-0.114,-0.1223,-0.1211,-0.0987,-0.0922,-0.0804,-0.0944,-0.0761,-0.1204,-0.1258,-0.1292,-0.1387,-0.1364,0,0,0,0,0]},{"header":{"parameterUnit":"m.s-1","parameterCategory":2,"la1":30.2991,"la2":30.254,"lo1":-89.0895,"lo2":-89.0444,"dy":0.0017,"dx":0.0017,"nx":28,"ny":28,"refTime":"2025-09-13T21:00:00:Z","depth":"2","parameterNumber":3,"parameterNumberName":"V-component_of_CURRENTS"},"data":[0,0,0,0,0,0,0,0,0,0,0,0,0,0,0,0,0,0,0,0,0,0,0,0,0,0,0,0,0,0,0,0,0,0,0,0,0,0,0,0,0,0,0,0,0,0,0,0,0,0,0,0,0,0,0,0,0,0,-0.0288,-0.0287,0,-0.0228,-0.0228,-0.0228,-0.0195,-0.0194,-0.0193,-0.0193,0.0053,0.0059,0.0065,0,0,0,0,0,0,0,0,0,0,0,0,0,-0.0369,-0.0368,-0.0288,-0.0287,-0.0285,-0.0228,-0.0228,-0.0228,-0.0195,-0.0194,-0.0193,-0.0192,0.0051,0.0058,0.0065,0,0,0,0,0,0,0,0,0,0,0,0,0,-0.033,-0.0368,-0.0288,-0.0257,-0.0253,-0.0228,-0.0228,-0.0228,-0.0195,-0.0194,-0.0193,-0.0192,0.0049,0.0058,0.0066,0.01,0,0,0.0094,0.0097,0,0,0,0,0,0,0,0,-0.0333,-0.0328,-0.0263,-0.0259,-0.0255,-0.0212,-0.0166,-0.0107,-0.0195,-0.0224,-0.0193,-0.0191,-0.0014,-0.0001,-0.0004,0.0112,0.0122,0.0094,0.01,0.0103,0.0106,0,0,0,0,0,0,0,-0.0335,-0.0331,-0.0271,-0.0262,-0.0256,-0.0244,-0.0238,-0.0156,-0.0128,-0.0222,-0.0217,-0.0201,-0.0012,-0.0013,0.0003,0.0126,0.0094,0.0102,0.0107,0.0111,0.0354,0.0355,0,0,0,0,0,0,-0.0331,-0.0333,-0.0273,-0.0269,-0.0285,-0.0243,-0.0237,-0.0232,-0.0132,-0.0116,-0.0202,-0.0199,-0.0028,-0.0007,0.0012,0.0126,0.0103,0.0112,0.0117,0.0353,0.0354,0.0356,0,0,0,0,0,0,-0.0333,-0.0327,-0.0275,-0.0294,-0.0285,-0.0242,-0.0238,-0.0231,-0.0212,-0.0118,-0.0099,-0.0185,-0.0026,-0.0,0.009,0.0134,0.0116,0.0124,0.0352,0.0353,0.0355,0.0313,0,0,0,0,0,0,-0.0336,-0.0328,-0.0338,-0.0294,-0.0284,-0.0256,-0.0238,-0.0231,-0.0201,-0.0197,-0.0097,-0.0075,-0.0024,0.0076,0.0099,0.0146,0.0131,0.035,0.0352,0.0354,0.0313,0.0313,0.0313,0,0,0,0,0,-0.034,-0.0353,-0.0339,-0.0332,-0.0294,-0.0255,-0.025,-0.022,-0.0201,-0.0198,-0.0131,-0.0077,0.0107,0.0084,0.011,0.0161,0.0349,0.0352,0.0354,0.0313,0.0313,0.0313,0,0,0,0,0,0,-0.0388,-0.0349,-0.0333,-0.0333,-0.0293,-0.0247,-0.0246,-0.0213,-0.0164,-0.0158,-0.0067,-0.0041,0.0062,0.0111,0.0083,0.0237,0.024,0.0248,0.02,0.0201,0.0201,0.0154,0.0138,0,0,0,0,0,-0.0403,-0.0405,-0.0354,-0.035,-0.0336,-0.0288,-0.0271,-0.0246,-0.019,-0.0169,-0.0085,0.0,0.0088,0.014,0.022,0.0299,0.0314,0.0351,0.0351,0.0351,0.0331,0.0345,0.0344,0.0364,0.0364,0.0364,0,0,-0.0416,-0.0396,-0.0395,-0.0361,-0.0335,-0.0321,-0.0278,-0.0253,-0.0226,-0.0144,-0.0077,0.0011,0.0109,0.0196,0.0247,0.0246,0.0363,0.0354,0.0353,0.0333,0.0348,0.0345,0.0343,0.0366,0.0366,0.0365,0,0,-0.0445,-0.0429,-0.0444,-0.0416,-0.0376,-0.0345,-0.0331,-0.027,-0.0233,-0.0165,-0.0086,0.0011,0.0139,0.0215,0.027,0.0319,0.0365,0.0367,0.0333,0.0348,0.0345,0.0343,0.0392,0.0394,0.0364,0.0364,0.0364,0,-0.0467,-0.0475,-0.0438,-0.044,-0.0421,-0.0354,-0.0354,-0.0309,-0.0218,-0.018,-0.0149,0.0038,0.014,0.0243,0.0269,0.0321,0.0337,0.0323,0.0344,0.0341,0.034,0.0391,0.0393,0.0362,0.0362,0.0362,0.0363,0,-0.0507,-0.0508,-0.051,-0.0494,-0.0469,-0.0457,-0.0387,-0.034,-0.0279,-0.0225,-0.0109,0.0009,0.0112,0.0185,0.0249,0.0315,0.0337,0.0341,0.0331,0.0334,0.039,0.0393,0.036,0.036,0.0361,0.0361,0,0,-0.0559,-0.0547,-0.0546,-0.0544,-0.0499,-0.0477,-0.0432,-0.0371,-0.0334,-0.0236,-0.0181,-0.0014,0.0045,0.011,0.0218,0.0255,0.0299,0.0291,0.0293,0.032,0.0348,0.0386,0.0395,0.0292,0.0292,0.0292,0.0403,0,-0.06,-0.0629,-0.0603,-0.0603,-0.0606,-0.0535,-0.0496,-0.0428,-0.0353,-0.0278,-0.0157,-0.0061,0.0018,0.0085,0.0128,0.0267,0.03,0.0269,0.0359,0.0362,0.0377,0.0397,0.0377,0.0475,0.0407,0.0408,0.0408,0,-0.065,-0.0658,-0.069,-0.0654,-0.0648,-0.0636,-0.0566,-0.052,-0.041,-0.0348,-0.0262,-0.0164,-0.0041,0.0003,0.0163,0.0134,0.0227,0.0313,0.0318,0.036,0.0405,0.0457,0.0484,0.0414,0.0414,0.0413,0.0413,0,-0.0713,-0.0709,-0.074,-0.0732,-0.0689,-0.0676,-0.064,-0.0548,-0.0499,-0.0394,-0.0348,-0.0226,-0.0134,-0.004,0.0155,0.0151,0.0311,0.0324,0.0439,0.0445,0.0448,0.0454,0.0389,0.0389,0.0389,0.0388,0.0388,0,-0.0772,-0.0783,-0.0773,-0.0787,-0.0789,-0.0737,-0.0716,-0.0653,-0.0568,-0.051,-0.0395,-0.0317,-0.0148,-0.002,0.0118,0.03,0.0273,0.0432,0.0466,0.0441,0.0444,0.0398,0.0397,0.0393,0.0392,0.0391,0.039,0,-0.0834,-0.0838,-0.0857,-0.0836,-0.0827,-0.0826,-0.0768,-0.0742,-0.0658,-0.0581,-0.0547,-0.0377,-0.0205,-0.0031,0.0169,0.0274,0.0433,0.0497,0.048,0.0508,0.0568,0.0565,0.0629,0.0631,0.0632,0.0634,0.0635,0,-0.0873,-0.0898,-0.0902,-0.0911,-0.0906,-0.0892,-0.0877,-0.0796,-0.0758,-0.0602,-0.0565,-0.0384,-0.0224,0.0077,0.028,0.0503,0.0496,0.0607,0.0591,0.0562,0.0588,0.0582,0.0576,0.0604,0.0605,0.0606,0.0606,0,-0.0922,-0.0931,-0.0945,-0.0972,-0.0976,-0.0969,-0.0937,-0.0918,-0.0806,-0.0716,-0.0558,-0.042,-0.012,0.0135,0.0408,0.0531,0.0566,0.0629,0.0593,0.0539,0.0545,0.0569,0.0563,0.0612,0.0612,0.0611,0.0611,0.0611,-0.0943,-0.0966,-0.099,-0.1008,-0.1024,-0.1027,-0.1007,-0.0953,-0.0874,-0.0717,-0.058,-0.0353,-0.0097,0.0296,0.049,0.0653,0.0657,0.0701,0.0696,0.069,0.066,0.0668,0.0755,0.0755,0.0756,0.0756,0.0756,0,-0.0942,-0.0976,-0.1011,-0.1036,-0.1062,-0.1057,-0.1025,-0.0976,-0.0874,-0.0721,-0.0546,-0.0249,0.0045,0.0286,0.0562,0.074,0.0713,0.0753,0.0688,0.0683,0.0677,0.0643,0.0735,0.0736,0.0736,0.0736,0,0,-0.0945,-0.0978,-0.1002,-0.105,-0.1073,-0.1071,-0.1048,-0.0958,-0.0837,-0.0659,-0.0494,-0.0273,0.0056,0.0243,0.0469,0.0608,0.059,0.0611,0.0614,0.0508,0.05,0.0642,0.0582,0,0,0,0,0]}],[{"header":{"parameterUnit":"m.s-1","parameterCategory":2,"la1":30.2991,"la2":30.254,"lo1":-89.0895,"lo2":-89.0444,"dy":0.0017,"dx":0.0017,"nx":28,"ny":28,"refTime":"2025-09-13T21:00:00:Z","depth":"4","parameterNumber":2,"parameterNumberName":"U-component_of_CURRENTS"},"data":[0,0,0,0,0,0,0,0,0,0,0,0,0,0,0,0,0,0,0,0,0,0,0,0,0,0,0,0,0,0,0,0,0,0,0,0,0,0,0,0,0,0,0,0,0,0,0,0,0,0,0,0,0,0,0,0,0,0,-0.1355,-0.1355,0,-0.1431,-0.1431,-0.1432,-0.1462,-0.1462,-0.1462,-0.1461,-0.1539,-0.1541,-0.1543,0,0,0,0,0,0,0,0,0,0,0,0,0,-0.1254,-0.1256,-0.1354,-0.1355,-0.1356,-0.143,-0.1431,-0.1432,-0.1462,-0.1462,-0.1461,-0.1461,-0.1538,-0.154,-0.1543,0,0,0,0,0,0,0,0,0,0,0,0,0,-0.131,-0.1256,-0.1354,-0.138,-0.1384,-0.143,-0.1432,-0.1433,-0.1462,-0.1462,-0.1461,-0.1461,-0.1537,-0.154,-0.1543,-0.1568,0,0,-0.1554,-0.1555,0,0,0,0,0,0,0,0,-0.1307,-0.1314,-0.1376,-0.1379,-0.1382,-0.1437,-0.1425,-0.1478,-0.1462,-0.1432,-0.1461,-0.1461,-0.1505,-0.1511,-0.1525,-0.1572,-0.1575,-0.1554,-0.1556,-0.1557,-0.1558,0,0,0,0,0,0,0,-0.1303,-0.1311,-0.1384,-0.1377,-0.1381,-0.1395,-0.1403,-0.1435,-0.1468,-0.1434,-0.1437,-0.1446,-0.1507,-0.1522,-0.1527,-0.1577,-0.1554,-0.1557,-0.1559,-0.156,-0.1689,-0.169,0,0,0,0,0,0,-0.1294,-0.1307,-0.1382,-0.1386,-0.1344,-0.1397,-0.1406,-0.1419,-0.1468,-0.1475,-0.1446,-0.1447,-0.1516,-0.1523,-0.153,-0.1587,-0.1557,-0.156,-0.1562,-0.1687,-0.1689,-0.169,0,0,0,0,0,0,-0.1292,-0.13,-0.1378,-0.1348,-0.1359,-0.1399,-0.1414,-0.1421,-0.1458,-0.1477,-0.1485,-0.1479,-0.1516,-0.1525,-0.1573,-0.1589,-0.1562,-0.1565,-0.1685,-0.1688,-0.169,-0.1685,0,0,0,0,0,0,-0.1289,-0.1299,-0.1313,-0.1348,-0.1361,-0.1419,-0.1415,-0.1423,-0.1463,-0.1466,-0.1508,-0.1513,-0.1517,-0.1568,-0.1576,-0.1593,-0.1567,-0.1684,-0.1686,-0.1689,-0.1684,-0.1687,-0.169,0,0,0,0,0,-0.1285,-0.1304,-0.1313,-0.1323,-0.1377,-0.142,-0.1429,-0.1455,-0.1465,-0.1487,-0.1512,-0.1513,-0.1591,-0.1572,-0.1581,-0.1599,-0.1682,-0.1686,-0.1689,-0.1682,-0.1686,-0.169,0,0,0,0,0,0,-0.1273,-0.131,-0.1321,-0.1352,-0.1389,-0.1425,-0.1451,-0.1471,-0.1511,-0.1519,-0.1534,-0.1541,-0.159,-0.1603,-0.1582,-0.1647,-0.1637,-0.1642,-0.1629,-0.1633,-0.1636,-0.1636,-0.157,0,0,0,0,0,-0.1275,-0.1299,-0.1337,-0.1366,-0.1385,-0.1424,-0.1448,-0.1471,-0.1506,-0.1524,-0.1557,-0.1588,-0.1609,-0.1627,-0.1657,-0.1695,-0.1703,-0.1714,-0.1717,-0.172,-0.1728,-0.1763,-0.177,-0.1701,-0.1701,-0.1701,0,0,-0.1282,-0.1304,-0.1321,-0.1365,-0.1396,-0.1432,-0.1439,-0.1487,-0.152,-0.1527,-0.1592,-0.1608,-0.1624,-0.1661,-0.1684,-0.1674,-0.174,-0.1724,-0.1725,-0.1733,-0.1767,-0.1774,-0.1779,-0.1703,-0.1703,-0.1702,0,0,-0.1296,-0.1327,-0.1346,-0.1381,-0.143,-0.1455,-0.1475,-0.1531,-0.1559,-0.1618,-0.1622,-0.1644,-0.1707,-0.17,-0.1706,-0.1749,-0.176,-0.1772,-0.1783,-0.1816,-0.1822,-0.1827,-0.1823,-0.1827,-0.1768,-0.1768,-0.1768,0,-0.1296,-0.1332,-0.1362,-0.1392,-0.1422,-0.1468,-0.1501,-0.154,-0.1608,-0.163,-0.1645,-0.1715,-0.1718,-0.1735,-0.174,-0.1752,-0.1774,-0.1759,-0.1818,-0.1824,-0.1829,-0.1824,-0.1829,-0.1768,-0.1768,-0.1768,-0.1768,0,-0.1319,-0.136,-0.138,-0.1428,-0.1465,-0.1509,-0.1558,-0.1606,-0.165,-0.1681,-0.1738,-0.175,-0.1786,-0.1784,-0.1772,-0.1807,-0.181,-0.1819,-0.1801,-0.1835,-0.1828,-0.1833,-0.1768,-0.1768,-0.1768,-0.1768,0,0,-0.1282,-0.1374,-0.1383,-0.1419,-0.149,-0.1523,-0.158,-0.1634,-0.1682,-0.1739,-0.1793,-0.1801,-0.1821,-0.1828,-0.1822,-0.1835,-0.186,-0.1846,-0.1848,-0.1829,-0.1926,-0.1767,-0.1758,-0.1895,-0.1896,-0.1898,-0.1897,0,-0.1289,-0.1346,-0.1393,-0.1464,-0.1499,-0.1561,-0.1616,-0.1673,-0.1729,-0.18,-0.1808,-0.1864,-0.1836,-0.186,-0.1869,-0.1876,-0.188,-0.1858,-0.1909,-0.191,-0.1754,-0.1761,-0.1903,-0.1901,-0.1902,-0.1903,-0.1904,0,-0.1285,-0.1328,-0.1387,-0.1488,-0.1511,-0.1564,-0.1654,-0.1712,-0.1798,-0.1847,-0.1893,-0.1927,-0.1943,-0.1933,-0.195,-0.195,-0.1941,-0.1934,-0.1935,-0.1795,-0.1761,-0.1869,-0.1914,-0.1913,-0.1912,-0.1912,-0.1911,0,-0.123,-0.1326,-0.1372,-0.1407,-0.1521,-0.1565,-0.163,-0.1721,-0.1785,-0.1882,-0.1938,-0.198,-0.2011,-0.2025,-0.1992,-0.1999,-0.2011,-0.2017,-0.1858,-0.1846,-0.1992,-0.1987,-0.2036,-0.2036,-0.2036,-0.2036,-0.2036,0,-0.1207,-0.1255,-0.136,-0.1392,-0.1466,-0.1551,-0.1649,-0.1714,-0.183,-0.1892,-0.1964,-0.1999,-0.2046,-0.2052,-0.2027,-0.1937,-0.2037,-0.1854,-0.1837,-0.1987,-0.1982,-0.1994,-0.1989,-0.2036,-0.2036,-0.2036,-0.2036,0,-0.1141,-0.1216,-0.1276,-0.1395,-0.1445,-0.1493,-0.1661,-0.1732,-0.1841,-0.1923,-0.1958,-0.2034,-0.2015,-0.2022,-0.2024,-0.1951,-0.1901,-0.1846,-0.198,-0.1973,-0.1709,-0.1704,-0.1681,-0.1675,-0.167,-0.1666,-0.1663,0,-0.111,-0.1133,-0.1255,-0.1308,-0.1371,-0.148,-0.1566,-0.1712,-0.1779,-0.1908,-0.1924,-0.1961,-0.1978,-0.184,-0.1867,-0.1799,-0.1771,-0.1746,-0.1741,-0.1686,-0.1674,-0.1677,-0.1679,-0.1655,-0.1654,-0.1653,-0.1652,0,-0.1036,-0.1082,-0.1134,-0.1236,-0.1329,-0.1434,-0.1554,-0.1593,-0.1737,-0.1858,-0.1829,-0.1803,-0.177,-0.1728,-0.1677,-0.1634,-0.1768,-0.1697,-0.1707,-0.1702,-0.1656,-0.1649,-0.1656,-0.1635,-0.1638,-0.1639,-0.164,0,-0.0974,-0.0984,-0.106,-0.114,-0.1259,-0.1331,-0.142,-0.1488,-0.1565,-0.1694,-0.1671,-0.1687,-0.1744,-0.1641,-0.1598,-0.1533,-0.1512,-0.1473,-0.1495,-0.1513,-0.1454,-0.1371,-0.1242,0,0,0,0,0,-0.0897,-0.0905,-0.0972,-0.1052,-0.1169,-0.1232,-0.1389,-0.1479,-0.1607,-0.1539,-0.1601,-0.1551,-0.1474,-0.1489,-0.138,-0.1522,-0.1522,-0.1392,-0.1492,-0.1545,-0.1564,-0.1507,0,0,0,0,0,0,-0.0852,-0.0893,-0.0919,-0.0958,-0.0999,-0.1113,-0.1198,-0.1295,-0.1272,-0.1392,-0.135,-0.1439,-0.138,-0.1482,-0.1333,-0.1338,-0.1368,-0.1415,-0.141,-0.1534,-0.1551,-0.1566,-0.1514,0,0,0,0,0]},{"header":{"parameterUnit":"m.s-1","parameterCategory":2,"la1":30.2991,"la2":30.254,"lo1":-89.0895,"lo2":-89.0444,"dy":0.0017,"dx":0.0017,"nx":28,"ny":28,"refTime":"2025-09-13T21:00:00:Z","depth":"4","parameterNumber":3,"parameterNumberName":"V-component_of_CURRENTS"},"data":[0,0,0,0,0,0,0,0,0,0,0,0,0,0,0,0,0,0,0,0,0,0,0,0,0,0,0,0,0,0,0,0,0,0,0,0,0,0,0,0,0,0,0,0,0,0,0,0,0,0,0,0,0,0,0,0,0,0,-0.0355,-0.0355,0,-0.0347,-0.0347,-0.0347,-0.0325,-0.0325,-0.0324,-0.0324,-0.0265,-0.0264,-0.0263,0,0,0,0,0,0,0,0,0,0,0,0,0,-0.034,-0.034,-0.0355,-0.0355,-0.0355,-0.0347,-0.0347,-0.0347,-0.0325,-0.0325,-0.0324,-0.0324,-0.0265,-0.0264,-0.0263,0,0,0,0,0,0,0,0,0,0,0,0,0,-0.0341,-0.0341,-0.0355,-0.0343,-0.0342,-0.0347,-0.0347,-0.0347,-0.0326,-0.0325,-0.0324,-0.0323,-0.0266,-0.0264,-0.0262,-0.0267,0,0,-0.0257,-0.0257,0,0,0,0,0,0,0,0,-0.0341,-0.0342,-0.0345,-0.0344,-0.0342,-0.0336,-0.032,-0.0317,-0.0326,-0.0332,-0.0324,-0.0323,-0.0284,-0.0281,-0.0283,-0.0265,-0.0262,-0.0257,-0.0256,-0.0256,-0.0255,0,0,0,0,0,0,0,-0.0341,-0.0342,-0.0352,-0.0345,-0.0343,-0.0333,-0.0333,-0.0319,-0.0312,-0.0332,-0.033,-0.0328,-0.0283,-0.0284,-0.0281,-0.0261,-0.0257,-0.0256,-0.0255,-0.0254,-0.0248,-0.0248,0,0,0,0,0,0,-0.0343,-0.0342,-0.0353,-0.0352,-0.0339,-0.0334,-0.0334,-0.0339,-0.0313,-0.0309,-0.0329,-0.0327,-0.0287,-0.0283,-0.0279,-0.0288,-0.0256,-0.0254,-0.0253,-0.0247,-0.0248,-0.0249,0,0,0,0,0,0,-0.0343,-0.0344,-0.0353,-0.0346,-0.0346,-0.0335,-0.0342,-0.0339,-0.034,-0.0312,-0.0306,-0.0332,-0.0287,-0.0281,-0.0273,-0.0285,-0.0253,-0.0252,-0.0246,-0.0247,-0.0248,-0.0304,0,0,0,0,0,0,-0.0342,-0.0344,-0.0353,-0.0346,-0.0347,-0.0361,-0.0342,-0.034,-0.034,-0.0338,-0.0312,-0.0306,-0.0286,-0.0276,-0.0272,-0.0282,-0.0251,-0.0245,-0.0246,-0.0248,-0.0301,-0.0307,-0.0312,0,0,0,0,0,-0.0342,-0.0359,-0.0353,-0.0355,-0.0358,-0.0362,-0.0361,-0.0351,-0.0341,-0.0347,-0.0331,-0.0307,-0.0283,-0.0276,-0.027,-0.0281,-0.0244,-0.0246,-0.0248,-0.0298,-0.0305,-0.0311,0,0,0,0,0,0,-0.0356,-0.0358,-0.0352,-0.0368,-0.0366,-0.0358,-0.0365,-0.0356,-0.035,-0.0347,-0.0317,-0.0311,-0.0308,-0.0289,-0.0282,-0.0284,-0.0259,-0.026,-0.03,-0.0306,-0.0312,-0.0287,-0.0249,0,0,0,0,0,-0.0364,-0.0377,-0.0372,-0.0384,-0.0386,-0.0376,-0.0377,-0.037,-0.0362,-0.0359,-0.0339,-0.0322,-0.0313,-0.0305,-0.0292,-0.0294,-0.0229,-0.0297,-0.0303,-0.0308,-0.0285,-0.0192,-0.0185,-0.0255,-0.0255,-0.0255,0,0,-0.0374,-0.0375,-0.0383,-0.0388,-0.0386,-0.0394,-0.0375,-0.0382,-0.0382,-0.0353,-0.035,-0.0339,-0.0318,-0.0321,-0.0318,-0.0305,-0.026,-0.031,-0.0314,-0.0288,-0.0193,-0.0185,-0.0179,-0.0256,-0.0256,-0.0256,0,0,-0.0397,-0.0401,-0.0418,-0.0419,-0.0419,-0.0413,-0.0416,-0.041,-0.0403,-0.0402,-0.0383,-0.0376,-0.0362,-0.0348,-0.0339,-0.0365,-0.0292,-0.037,-0.0376,-0.0287,-0.028,-0.0272,-0.0202,-0.0188,-0.0373,-0.0373,-0.0373,0,-0.0407,-0.0428,-0.0423,-0.0436,-0.0438,-0.0423,-0.0436,-0.0429,-0.042,-0.0408,-0.0406,-0.0372,-0.037,-0.0352,-0.0374,-0.0375,-0.0311,-0.0355,-0.0291,-0.0282,-0.0273,-0.0203,-0.0186,-0.0376,-0.0376,-0.0375,-0.0375,0,-0.0439,-0.0455,-0.0466,-0.0475,-0.0476,-0.0488,-0.0475,-0.0472,-0.046,-0.0442,-0.042,-0.0407,-0.0378,-0.0394,-0.0396,-0.0349,-0.0321,-0.0307,-0.0269,-0.0269,-0.0196,-0.0178,-0.038,-0.0379,-0.0378,-0.0377,0,0,-0.0461,-0.0485,-0.0489,-0.0497,-0.0499,-0.0502,-0.0502,-0.0489,-0.0472,-0.0456,-0.0418,-0.0427,-0.0399,-0.0387,-0.0382,-0.0325,-0.0243,-0.0297,-0.0291,-0.0218,-0.0042,-0.0083,-0.0066,-0.0206,-0.0203,-0.02,-0.0023,0,-0.0487,-0.0523,-0.0523,-0.0547,-0.0562,-0.0545,-0.054,-0.0522,-0.0495,-0.0453,-0.0418,-0.0387,-0.04,-0.0388,-0.0331,-0.0263,-0.0192,-0.0291,-0.006,-0.0053,-0.008,-0.0046,-0.019,-0.0009,-0.0005,-0.0002,0.0001,0,-0.0516,-0.0535,-0.0573,-0.0578,-0.0581,-0.059,-0.0567,-0.0558,-0.0496,-0.0467,-0.0412,-0.0368,-0.0305,-0.0304,-0.0147,-0.0204,-0.0121,-0.0062,-0.0053,-0.0049,-0.0059,-0.0003,0.0035,0.0032,0.003,0.0027,0.0025,0,-0.0537,-0.0565,-0.0598,-0.0604,-0.061,-0.0615,-0.0609,-0.0566,-0.0546,-0.0463,-0.0423,-0.0326,-0.0274,-0.0147,-0.0056,-0.0077,0.0138,0.0129,0.0181,0.0178,0.0188,0.0178,0.0281,0.0281,0.028,0.028,0.0279,0,-0.0563,-0.0586,-0.0614,-0.0633,-0.0652,-0.064,-0.0637,-0.061,-0.055,-0.0508,-0.0429,-0.0363,-0.0225,-0.0103,-0.0008,0.0136,0.0187,0.0205,0.0233,0.0153,0.0138,0.02,0.0188,0.0286,0.0285,0.0284,0.0283,0,-0.0582,-0.0606,-0.0641,-0.0662,-0.067,-0.0681,-0.0672,-0.0658,-0.0597,-0.053,-0.0499,-0.0366,-0.0209,-0.0074,0.0131,0.0185,0.033,0.0372,0.0275,0.0291,0.0304,0.0287,0.0471,0.0471,0.0471,0.0472,0.0472,0,-0.0592,-0.0619,-0.0667,-0.0693,-0.0709,-0.0724,-0.0733,-0.069,-0.0663,-0.0532,-0.0493,-0.0331,-0.0235,0.0035,0.0161,0.0368,0.0375,0.0452,0.038,0.032,0.033,0.0312,0.0295,0.0472,0.0472,0.0472,0.0472,0,-0.0603,-0.0632,-0.0664,-0.0723,-0.0754,-0.0772,-0.0772,-0.075,-0.0676,-0.062,-0.046,-0.0313,-0.0136,0.0042,0.0195,0.0334,0.0401,0.0455,0.0455,0.0388,0.0324,0.0329,0.0312,0.0473,0.0473,0.0473,0.0473,0,-0.0609,-0.0636,-0.0692,-0.0736,-0.0786,-0.0805,-0.0799,-0.0744,-0.07,-0.0549,-0.0494,-0.0294,-0.0171,0.0028,0.0172,0.0297,0.032,0.0342,0.0349,0.0349,0.0233,0.0129,0.0269,0,0,0,0,0,-0.0603,-0.0643,-0.0695,-0.075,-0.0804,-0.0825,-0.0819,-0.0798,-0.072,-0.0612,-0.0546,-0.0375,-0.0133,-0.0023,0.01,0.0146,0.0314,0.0289,0.0336,0.0478,0.0477,0.0355,0,0,0,0,0,0,-0.0605,-0.0661,-0.0693,-0.0755,-0.0794,-0.0839,-0.0836,-0.0784,-0.0711,-0.0612,-0.0481,-0.0371,-0.0143,-0.0205,0.0095,0.0136,0.0176,0.0414,0.0416,0.0479,0.0478,0.0477,0.0351,0,0,0,0,0]}]]